Wind_Speed
34 33 45 37 36 38 37 38 37 36 34 31 28 28 21 16 15 13 10 9 5 3 4 6 8 8 10 11 11 10 10 10 11 12 12 12 14 14 15 17 17 18 19
40 40 34 26 29 33 38 38 38 34 33 33 29 22 18 18 17 15 11 7 5 5 7 8 10 11 12 12 12 10 9 9 9 9 9 12 10 12 12 13 15 17 19
32 29 26 24 36 37 39 41 40 36 35 30 24 22 19 20 19 14 10 8 8 8 9 11 13 13 12 13 14 13 10 9 10 9 8 12 12 12 13 14 13 15 16
40 46 34 36 38 38 43 42 40 36 39 27 25 23 18 22 19 14 11 10 10 10 11 12 12 13 14 17 18 14 12 11 10 11 9 13 14 15 16 17 17 18 18
40 42 39 36 35 42 43 45 41 40 41 32 24 22 18 22 19 14 12 13 12 12 13 14 16 17 17 18 19 16 13 12 11 12 15 15 15 17 19 20 21 21 22
37 32 28 34 39 35 43 41 44 40 37 26 21 18 15 20 18 15 14 14 13 14 16 18 18 19 19 17 16 17 18 12 13 14 17 20 22 22 20 21 23 25 26
31 29 30 34 31 37 38 43 48 38 28 23 15 12 15 18 15 13 15 17 17 19 20 19 20 20 21 17 17 18 19 16 18 17 23 24 23 23 24 24 24 26 28
27 30 30 27 37 36 44 46 30 21 23 11 12 11 11 11 9 16 19 19 20 22 23 24 23 22 23 26 26 28 29 26 27 23 25 28 27 26 25 26 26 27 29
42 28 27 30 48 50 26 13 13 21 21 14 12 14 9 16 17 18 19 20 20 22 25 26 25 25 27 24 21 22 26 27 27 28 29 29 32 31 30 30 30 30 30
37 31 26 26 46 21 13 9 8 15 13 10 7 8 11 12 15 17 18 21 23 24 25 26 24 21 18 23 27 29 28 32 32 32 37 37 38 35 37 34 33 33 31
34 35 36 21 21 13 8 15 16 13 11 8 9 9 9 11 16 18 20 21 25 26 26 25 20 18 19 28 28 30 31 36 36 36 39 39 41 44 45 42 40 37 36
33 24 24 19 23 20 17 13 8 5 5 5 8 9 12 15 19 20 23 25 26 24 20 19 18 24 33 42 31 30 32 34 38 42 42 43 43 44 49 42 39 40 38
16 16 15 10 18 15 13 8 4 2 5 8 9 12 16 18 14 16 13 21 22 27 23 22 25 31 40 37 32 33 35 39 41 41 43 46 48 50 47 42 40 39 37
8 18 16 17 12 8 4 3 2 4 6 8 11 14 20 21 22 22 22 25 27 24 24 29 33 37 37 36 34 34 36 37 38 40 41 41 42 42 43 43 41 40 39
10 13 10 8 6 4 2 2 4 5 8 12 14 16 16 17 24 26 26 25 23 20 24 27 26 27 32 34 36 38 39 38 37 39 41 42 41 42 43 43 43 42 42
4 5 8 6 3 2 3 2 3 8 10 12 6 20 14 20 22 17 16 19 20 21 23 25 27 30 32 36 38 39 40 40 42 43 44 44 45 47 47 46 45 44 46
5 6 6 5 6 5 9 8 10 12 15 14 18 21 22 18 16 17 21 24 26 26 26 27 28 30 32 35 39 42 42 42 42 44 44 43 44 45 47 48 49 49 52
3 3 4 6 8 11 13 14 14 16 16 15 20 20 14 16 19 22 25 27 29 29 30 32 33 35 37 40 42 45 46 43 41 43 44 45 46 48 49 51 51 52 53
4 5 9 12 14 14 16 18 18 17 17 19 17 14 17 19 22 24 26 28 30 32 34 35 37 40 43 45 46 47 47 45 43 45 46 48 50 53 56 57 58 59 61
10 9 11 15 16 18 17 17 18 16 17 13 13 17 21 23 26 29 31 34 36 38 41 43 44 46 48 48 47 46 45 45 45 47 49 53 57 61 65 68 70 72 74
10 14 15 18 18 18 19 16 13 13 15 17 21 24 28 30 34 35 37 38 40 43 45 46 46 48 50 50 49 48 46 47 49 51 56 61 65 69 73 77 79 81 83
12 18 22 22 20 20 17 12 15 17 21 25 27 31 35 38 41 43 44 45 47 48 48 49 49 52 54 53 52 50 49 50 53 58 61 66 70 73 76 81 86 92 95
21 20 21 19 21 14 15 18 19 22 26 30 33 37 41 44 46 47 48 49 50 50 50 51 52 55 56 55 54 53 54 56 59 62 68 72 75 78 83 89 92 95 95
26 24 21 17 13 16 18 22 24 28 32 35 38 42 46 48 50 51 51 53 55 56 54 56 57 58 57 56 55 57 60 63 67 69 70 74 79 83 88 91 97 94 82
26 24 18 12 14 19 22 27 29 33 37 41 44 46 48 50 51 53 55 57 57 55 55 61 59 59 58 54 56 59 63 66 67 72 72 76 80 90 91 94 89 76 70
21 15 14 14 19 25 29 32 36 39 43 46 49 51 53 55 56 56 57 58 57 53 61 62 62 61 58 59 61 63 66 70 73 77 78 82 86 88 95 87 70 64 59
Wind_Direction
263 277 265 253 259 270 277 278 279 280 279 282 282 289 278 252 227 217 213 212 223 267 289 294 293 292 310 314 314 315 318 320 314 312 308 296 302 305 303 300 300 299 299
277 276 256 254 266 271 272 271 272 273 271 275 277 269 254 232 226 219 213 222 241 278 288 296 298 305 316 318 312 320 330 338 345 339 341 307 318 307 308 303 304 300 298
276 253 260 284 284 274 273 279 270 268 268 264 269 256 240 219 219 219 223 242 257 276 292 301 315 322 331 337 325 312 316 344 350 334 347 335 320 317 311 305 305 305 309
266 276 275 274 278 274 276 277 261 258 260 255 260 251 228 218 216 218 230 248 260 280 300 307 313 315 314 322 325 312 309 321 323 321 325 310 301 301 302 300 303 301 297
267 273 281 275 276 280 273 272 263 248 256 257 248 242 220 216 219 227 246 261 280 293 302 313 321 319 321 321 321 318 305 293 300 312 326 318 308 297 292 292 291 292 295
264 275 267 278 283 278 283 275 248 243 252 238 244 238 216 215 221 235 257 273 284 295 304 313 319 320 318 315 311 311 306 295 305 312 318 325 319 307 296 288 285 286 289
266 272 277 276 273 278 277 261 240 236 231 226 232 223 208 212 227 258 280 279 293 302 304 308 310 311 307 312 314 306 301 290 292 301 304 308 309 302 300 292 293 290 285
260 269 277 275 274 263 253 233 228 229 235 211 195 188 191 221 254 255 269 288 301 305 309 311 309 304 304 302 308 306 301 301 291 292 297 304 308 305 301 298 296 292 289
281 251 282 251 249 238 213 218 241 255 214 177 160 183 192 227 249 269 283 295 301 305 307 305 304 306 305 305 309 306 300 299 299 296 303 305 308 306 303 302 297 295 291
196 214 225 241 235 216 196 225 215 166 136 154 174 186 242 260 277 287 297 297 300 305 310 304 307 317 329 334 327 316 302 301 299 297 301 302 302 301 305 300 296 293 291
244 249 245 203 197 199 211 111 94 99 134 168 211 250 279 289 286 289 295 298 294 299 300 302 310 298 319 324 303 309 304 307 305 296 294 292 293 296 296 299 294 290 289
234 212 153 129 100 102 102 100 111 171 217 264 272 282 292 289 289 297 295 291 290 293 304 321 304 302 311 314 308 300 299 298 297 299 294 288 289 291 297 295 290 288 286
166 155 189 96 91 108 121 133 167 256 259 276 306 303 296 289 297 295 314 346 313 297 283 292 301 299 301 300 297 296 296 300 299 297 291 291 293 291 295 292 292 288 286
67 82 73 76 84 86 87 80 244 275 295 292 295 299 301 299 300 299 293 307 313 302 293 278 296 304 304 305 302 298 298 300 299 296 294 295 295 293 292 290 287 286 284
50 80 85 98 95 90 48 311 303 308 299 305 304 339 323 331 320 306 316 305 309 312 292 294 295 293 292 299 304 305 303 302 297 292 293 291 290 290 289 288 288 286 284
43 101 99 104 97 57 295 308 276 293 333 331 323 335 308 314 316 324 333 328 328 325 322 313 311 305 305 299 300 299 299 298 295 292 288 286 284 282 282 281 278 275 273
6 25 25 15 355 340 334 334 320 315 314 304 301 316 317 329 331 335 333 332 331 328 321 315 310 310 308 306 307 307 303 296 290 285 283 282 281 281 279 277 277 274 270
8 18 358 331 334 326 326 321 317 313 309 304 305 317 334 336 331 332 332 327 324 322 316 315 314 312 311 312 312 310 311 306 298 293 291 290 289 287 287 286 283 280 275
338 330 332 321 322 315 318 318 318 317 316 318 321 332 332 325 327 325 323 323 322 318 318 316 317 316 315 312 310 312 311 305 298 297 296 294 292 291 290 288 285 282 279
314 315 310 309 312 316 324 320 310 304 319 327 323 326 324 321 320 324 324 324 323 322 320 321 320 318 316 312 310 312 310 305 302 300 298 296 295 295 294 293 292 290 287
299 306 307 309 322 318 321 313 313 321 332 330 329 327 319 316 318 322 322 322 320 318 320 318 316 315 314 312 309 308 307 305 303 301 301 301 301 302 301 298 294 290 286
309 311 322 323 325 320 324 328 325 333 329 324 323 319 316 318 320 320 318 317 316 316 315 315 314 314 313 310 306 307 306 304 304 303 302 301 301 299 297 296 296 295 293
321 320 325 314 317 324 323 321 322 323 320 319 320 316 316 317 316 315 315 313 310 309 311 312 312 312 311 309 306 307 306 304 302 300 300 303 305 304 304 304 304 304 299
323 320 319 313 312 315 320 318 318 319 317 315 314 313 314 313 312 312 310 310 309 309 308 311 309 309 309 306 307 309 307 304 304 309 309 309 309 310 308 305 306 304 294
317 317 315 310 309 310 316 314 314 312 313 312 312 310 309 307 307 306 308 310 309 306 303 306 307 309 308 308 308 307 306 304 304 308 306 306 306 309 310 311 306 295 290
310 310 302 299 307 309 311 310 309 310 309 307 307 306 306 307 308 309 309 308 308 306 304 307 310 310 309 309 309 308 305 306 305 305 306 308 311 311 314 311 298 294 289
Height
5855 5854 5852 5853 5855 5856 5856 5856 5856 5856 5855 5855 5855 5855 5853 5854 5853 5853 5852 5852 5852 5852 5852 5851 5850 5849 5847 5846 5844 5844 5844 5843 5841 5840 5839 5838 5835 5834 5834 5834 5832 5830 5830
5850 5848 5846 5846 5848 5849 5850 5850 5850 5851 5851 5850 5851 5852 5850 5850 5852 5851 5851 5851 5851 5851 5850 5848 5847 5846 5844 5843 5843 5842 5841 5840 5839 5837 5837 5832 5832 5831 5830 5830 5829 5828 5827
5845 5842 5843 5841 5843 5844 5844 5844 5844 5845 5845 5846 5847 5848 5847 5847 5849 5851 5851 5851 5850 5848 5848 5847 5846 5845 5843 5842 5840 5840 5839 5838 5836 5834 5833 5831 5830 5829 5828 5827 5825 5825 5823
5841 5837 5839 5837 5838 5838 5837 5838 5839 5840 5840 5841 5843 5844 5844 5846 5847 5848 5848 5847 5847 5846 5845 5844 5843 5842 5841 5839 5838 5836 5835 5834 5833 5832 5832 5829 5828 5827 5826 5824 5823 5821 5819
5833 5830 5828 5830 5832 5831 5830 5830 5832 5834 5834 5836 5838 5841 5840 5843 5845 5847 5846 5846 5845 5843 5842 5841 5840 5839 5836 5835 5835 5833 5832 5831 5828 5828 5826 5826 5824 5822 5822 5820 5818 5817 5816
5826 5827 5828 5827 5827 5822 5825 5825 5827 5828 5830 5833 5836 5837 5838 5842 5843 5844 5844 5843 5841 5840 5840 5840 5838 5836 5834 5832 5829 5828 5827 5828 5829 5825 5823 5821 5818 5818 5816 5815 5814 5812 5811
5821 5823 5823 5822 5820 5819 5819 5821 5821 5823 5826 5829 5832 5835 5836 5839 5841 5842 5841 5839 5839 5838 5837 5835 5833 5832 5831 5828 5827 5824 5823 5824 5823 5821 5819 5817 5816 5813 5811 5810 5808 5807 5804
5814 5817 5817 5816 5811 5811 5812 5816 5818 5821 5824 5826 5830 5832 5834 5836 5839 5839 5838 5837 5836 5835 5834 5833 5830 5828 5826 5825 5823 5821 5818 5819 5817 5816 5816 5812 5812 5810 5807 5805 5803 5801 5800
5804 5811 5807 5805 5801 5805 5809 5814 5819 5822 5823 5825 5828 5830 5832 5834 5835 5836 5835 5834 5832 5831 5830 5828 5826 5824 5822 5820 5819 5817 5813 5813 5812 5811 5810 5807 5806 5804 5801 5799 5798 5796 5795
5798 5800 5805 5806 5802 5804 5808 5813 5816 5818 5822 5827 5830 5832 5832 5831 5832 5832 5831 5830 5828 5827 5824 5824 5822 5820 5819 5817 5814 5811 5810 5808 5806 5802 5800 5797 5796 5795 5793 5791 5790 5789 5788
5805 5806 5802 5804 5802 5806 5811 5815 5819 5822 5826 5829 5829 5829 5828 5827 5828 5827 5826 5825 5823 5821 5819 5817 5817 5816 5814 5812 5811 5808 5804 5799 5797 5796 5793 5791 5788 5785 5785 5783 5782 5781 5780
5806 5803 5795 5799 5803 5809 5815 5818 5821 5824 5825 5826 5826 5826 5825 5824 5823 5824 5822 5820 5818 5816 5815 5814 5813 5811 5808 5807 5803 5800 5796 5792 5790 5787 5784 5782 5780 5778 5776 5775 5774 5773 5772
5799 5799 5799 5799 5806 5811 5814 5817 5821 5821 5822 5823 5823 5822 5822 5821 5822 5820 5818 5816 5815 5813 5810 5808 5806 5804 5802 5800 5796 5793 5789 5785 5781 5777 5775 5772 5771 5768 5768 5767 5765 5765 5764
5798 5800 5801 5803 5809 5810 5813 5816 5818 5818 5820 5820 5821 5819 5819 5817 5818 5818 5814 5812 5809 5806 5804 5802 5800 5797 5794 5790 5787 5784 5781 5778 5775 5771 5767 5766 5762 5761 5759 5758 5757 5756 5756
5798 5801 5804 5805 5808 5810 5812 5815 5816 5818 5817 5816 5815 5815 5814 5813 5812 5808 5807 5803 5801 5800 5799 5797 5794 5791 5786 5783 5778 5774 5771 5769 5765 5762 5759 5756 5755 5752 5751 5750 5749 5747 5747
5799 5801 5803 5806 5808 5810 5814 5815 5815 5815 5810 5811 5812 5810 5811 5809 5805 5802 5798 5798 5796 5794 5791 5789 5785 5781 5777 5774 5770 5767 5764 5760 5756 5751 5748 5747 5745 5742 5741 5740 5740 5739 5738
5799 5800 5803 5804 5806 5809 5811 5810 5810 5806 5807 5808 5807 5807 5805 5801 5798 5797 5795 5793 5790 5787 5784 5781 5776 5773 5769 5766 5763 5759 5755 5752 5747 5742 5739 5737 5733 5732 5729 5727 5726 5727 5727
5802 5802 5802 5803 5806 5807 5807 5806 5805 5804 5805 5804 5802 5800 5797 5795 5794 5792 5789 5787 5784 5780 5776 5771 5768 5765 5761 5758 5755 5749 5744 5740 5735 5730 5729 5724 5722 5719 5717 5715 5714 5712 5710
5800 5801 5801 5802 5803 5802 5803 5802 5801 5800 5798 5796 5795 5793 5792 5792 5789 5785 5782 5779 5776 5772 5768 5764 5761 5757 5753 5749 5744 5738 5733 5729 5725 5721 5718 5714 5711 5707 5704 5702 5700 5698 5695
5799 5800 5800 5800 5800 5799 5798 5796 5795 5795 5793 5792 5791 5788 5785 5784 5782 5777 5774 5769 5765 5762 5758 5754 5751 5746 5742 5738 5733 5727 5722 5718 5714 5710 5707 5701 5697 5692 5687 5681 5679 5677 5675
5799 5798 5799 5798 5797 5795 5794 5792 5790 5789 5787 5785 5783 5782 5779 5778 5775 5769 5766 5761 5758 5754 5750 5746 5742 5737 5731 5726 5721 5716 5711 5706 5702 5698 5693 5687 5682 5675 5668 5661 5656 5651 5648
5797 5795 5792 5789 5789 5788 5787 5786 5785 5782 5780 5778 5779 5775 5771 5767 5763 5759 5757 5753 5748 5744 5739 5734 5730 5725 5719 5713 5708 5704 5700 5697 5691 5685 5679 5672 5666 5658 5649 5641 5632 5625 5618
5792 5791 5790 5789 5786 5785 5784 5782 5781 5779 5777 5775 5772 5768 5764 5761 5757 5754 5750 5745 5740 5735 5729 5724 5718 5713 5706 5699 5693 5688 5684 5681 5677 5672 5665 5658 5649 5639 5629 5617 5606 5596 5584
5788 5787 5788 5786 5784 5783 5782 5779 5777 5774 5772 5769 5767 5763 5758 5754 5750 5746 5741 5736 5729 5723 5717 5712 5706 5701 5694 5687 5681 5674 5668 5662 5657 5654 5645 5636 5627 5616 5605 5593 5577 5562 5551
5786 5783 5783 5783 5782 5779 5779 5776 5774 5770 5769 5765 5761 5757 5753 5749 5745 5739 5732 5724 5717 5712 5706 5701 5694 5688 5681 5674 5668 5661 5654 5646 5639 5632 5629 5619 5609 5594 5580 5566 5547 5533 5524
5782 5782 5781 5780 5778 5775 5774 5771 5768 5764 5761 5758 5753 5749 5743 5737 5731 5725 5719 5712 5705 5699 5693 5687 5679 5672 5665 5659 5652 5644 5635 5626 5617 5608 5602 5597 5587 5576 5555 5535 5520 5511 5503